Location: Saluda
(35.2377°N, 82.3468°W)
Time: 13:50:49
(UTC+00:00)

Tiros 1 - Visible Passes

Search period start: 03 October 2022 00:00
Search period end: 13 October 2022 00:00
Orbit: 629 x 663 km, 48.4° (Epoch: 02 October)

Date Brightness Start Highest point End Pass type
(mag) Time Alt. Az. Time Alt. Az. Time Alt. Az.
03 Oct 10.1 08:12:57 12° NE 08:12:57 12° NE 08:13:41 10° NE visible
03 Oct 8.5 09:50:37 17° NNW 09:53:48 36° NNE 09:58:08 10° E visible
04 Oct 9.5 08:37:53 20° NE 08:37:53 20° NE 08:40:28 10° ENE visible
04 Oct 7.4 10:15:33 14° NW 10:19:38 70° NE 10:24:18 10° ESE visible
05 Oct 8.5 09:02:56 33° NNE 09:02:56 33° NNE 09:07:09 10° E visible
05 Oct 7.4 10:40:37 10° WNW 10:45:12 52° SW 10:49:44 10° SSE visible
06 Oct 7.4 09:28:07 57° N 09:28:43 64° NE 09:33:23 10° ESE visible
07 Oct 10.2 08:15:47 12° E 08:15:47 12° E 08:16:10 10° E visible
07 Oct 7.2 09:53:28 49° W 09:54:20 58° SW 09:58:56 10° SE visible
08 Oct 9.6 08:41:14 18° ESE 08:41:14 18° ESE 08:42:27 10° ESE visible
08 Oct 8.3 10:18:56 23° WSW 10:19:42 24° SW 10:23:27 10° S visible
09 Oct 9.0 00:26:17 10° S 00:28:05 16° SSE 00:28:05 16° SSE visible
09 Oct 9.3 09:06:48 19° SE 09:06:48 19° SE 09:08:06 10° SE visible
10 Oct 8.1 00:50:19 10° SSW 00:53:33 35° S 00:53:33 35° S visible
10 Oct 9.5 09:32:26 12° S 09:32:26 12° S 09:32:47 10° S visible
10 Oct 8.9 23:35:44 10° SSE 23:38:40 16° SE 23:41:12 11° E visible
11 Oct 8.1 01:15:34 10° SW 01:18:52 44° WSW 01:18:52 44° WSW visible
11 Oct 7.7 23:59:31 10° SSW 00:03:56 39° SE 00:06:22 23° E visible
12 Oct 9.1 01:41:36 10° W 01:44:03 27° W 01:44:03 27° W visible
